Regional Weather Roundup
Issued by NWS

Home | Current Version | Previous Version | Graphics & Text | Print | Product List | Glossary On
Versions: 1 2 3 4 5 6 7 8 9 10 11 12 13 14 15 16 17 18 19 20 21 22 23 24 25 26 27 28 29 30 31 32 33 34 35 36 37 38 39 40 41 42 43 44 45 46 47 48 49 50
000
ASUS43 KFSD 241302
RWRSD

WEATHER ROUNDUP FOR SOUTH DAKOTA
NATIONAL WEATHER SERVICE SIOUX FALLS SD
700 AM CST SAT FEB 24 2018

NOTE: "FAIR" INDICATES FEW OR NO CLOUDS BELOW 12,000 FEET WITH NO
SIGNIFICANT WEATHER AND/OR OBSTRUCTIONS TO VISIBILITY.


SDZ001>005-009-010-012>017-241400-
NORTHWEST AND NORTH CENTRAL SOUTH DAKOTA

CITY           SKY/WX    TMP DP  RH WIND       PRES   REMARKS
BUFFALO          N/A      9   4  80 W3        29.68F
FAITH            N/A      5   3  91 S10       29.79F WCI -10
MOBRIDGE       CLOUDY     9   4  80 SE10      29.90F WCI  -5
$$

SDZ012>016-024>037-041>051-057-063-072>074-241400-
SOUTHWEST AND SOUTH CENTRAL SOUTH DAKOTA

CITY           SKY/WX    TMP DP  RH WIND       PRES   REMARKS
RAPID CTY ARPT MOCLDY    12   8  84 SE6       29.74F WCI   3
PIERRE         CLOUDY     8   6  92 SE10      29.92F WCI  -6
CUSTER         PTCLDY    15  12  88 W6        29.63F WCI   6
ELLSWORTH AFB  MOCLDY    12   9  87 NW5       29.74F WCI   4
PHILIP         FLURRIES  10   8  92 E6        29.84F WCI   0
PINE RIDGE     LGT SNOW  22  21  96 SW9       29.78F FOG     WCI  12
SPEARFISH        N/A     16  10  79 W7        29.73S WCI   6
WINNER         LGT SNOW  18  13  80 SE9       29.94F WCI   7
$$

SDZ004>011-016>023-039-040-241400-
NORTHEAST SOUTH DAKOTA

CITY           SKY/WX    TMP DP  RH WIND       PRES   REMARKS
ABERDEEN       CLOUDY    -5 -11  75 CALM      30.05F
WATERTOWN      CLOUDY     0  -5  79 N5        30.01F WCI -10
BROOKINGS      FLURRIES   8   5  87 E6        30.01F WCI  -2
SISSETON         N/A      1  -3  83 SE9       30.07F WCI -14
$$

SDZ017-020-022-023-036>040-048>070-241400-
SOUTHEAST SOUTH DAKOTA

CITY           SKY/WX    TMP DP  RH WIND       PRES   REMARKS
SIOUX FALLS    CLOUDY    15  12  88 E7        30.01F FOG     WCI   5
HURON          CLOUDY     4   1  88 E3        30.03F
CHAMBERLAIN    CLOUDY    13  11  94 CALM      29.98F
MITCHELL       FOG        6   5  95 CALM      30.06S VSB 1/4
YANKTON        SNOW      17  15  92 E6        30.05R VSB 1/4 WCI   9
$$

ABBREVIATIONS USED IN REMARKS
   TC - TEMPERATURE IN CELSIUS
  WCI - WIND CHILL INDEX
   HX - HEAT INDEX
  VSB - VISIBILITY





USA.gov is the U.S. government's official web portal to all federal, state and local government web resources and services.